Tracking 20712 objects as of 27-May-2020
HD Live streaming from Space Station
objects crossing your sky now

COSMOS 621

Track COSMOS 621 now!
10-day predictions
COSMOS 621 is classified as:


NORAD ID: 6989
Int'l Code: 1973-104E
Perigee: 1,412.6 km
Apogee: 1,492.0 km
Inclination: 74.0 °
Period: 114.8 minutes
Semi major axis: 7823 km
RCS: 0.7035 m2 (medium)
Launch date: December 19, 1973
Source: Commonwealth of Independent States (former USSR) (CIS)
Launch site: PLESETSK MISSILE AND SPACE COMPLEX (PKMTR)
aabbcc
Your satellite tracking list
Your tracking list is empty




NASA's NSSDC Master Catalog

Two Line Element Set (TLE):
1  6989U 73104E   20148.82413470 -.00000022  00000-0 -32488-4 0  9996
2  6989  74.0276 190.5879 0050764 317.4864  91.3032 12.54634366127147
Source of the keplerian elements: AFSPC